Voltar ao catálogo

OPS 4682 DEB

AtivoPO
NORAD 38394·DEBRIS·🇺🇸 United States

Lançado Apr 3, 1965 de Vandenberg Space Force Base

Loading…

Próximas Passagens (próximas 24 horas)

TLE

EnvelhecendoSource: Space-Track

Época: Sep 5, 2026, 08:49 UTC

1 38394U 65027CX  26248.36752557  .00000984  00000-0  32281-2 0  9998
2 38394  90.2738  26.2911 0038596 136.0216 224.3988 13.00155758 75136

Acompanhe OPS 4682 DEB em tempo real com AllMySat

Download on the App Store